Tracking 30918 objects as of 2-Jul-2025
HD Live streaming from Space Station
objects crossing your sky now

YZ-1 R/B

Track YZ-1 R/B now!


NORAD ID: 43248
Int'l Code: 2018-029D
Perigee: 22,131.4 km
Apogee: 22,706.1 km
Inclination: 55.0 °
Period: 810.2 minutes
Semi major axis: 28789 km
RCS: Unknown
Launch date: March 29, 2018
Source: People's Republic of China (PRC)
Launch site: Xichang Space Center, China (XSC)

Note: This is a ROCKET BODY
Your satellite tracking list
STARLINK-31202
Track 1 satellite(s)




NASA's NSSDC Master Catalog

Two Line Element Set (TLE):
1 43248U 18029D   25182.56354374 -.00000094  00000-0  00000-0 0  9990
2 43248  54.9651 321.6095 0099800  36.8488 323.8237  1.77724133 47118
Source of the keplerian elements: AFSPC